Skip Page Navigation
NASA JPL Caltech
NASA Logo - Jet Propulsion Laboratory + View the NASA Portal
+ Near-Earth Object (NEO) Program
Search JPL
JPL Home Earth Solar System Stars & Galaxies Technology
JPL Solar System Dynamics
BODIES ORBITS EPHEMERIDES TOOLS PHYSICAL DATA DISCOVERY FAQ SITE MAP
JPL Small-Body Database Browser
Search: [ help ]  
10665 Ortig~ao (3019 T-3)
Classification: Main-belt Asteroid          SPK-ID: 2010665
Ephemeris | Orbit Diagram | Orbital Elements | Physical Parameters | Discovery Circumstances | Close-Approach Data ]

[ show orbit diagram ]
Orbital Elements at Epoch 2456800.5 (2014-May-23.0) TDB
Reference: JPL 4 (heliocentric ecliptic J2000)
 Element Value Uncertainty (1-sigma)   Units 
e .1583545767850032 6.9762e-08  
a 2.798504044193614 2.8202e-08 AU
q 2.355348120644214 1.9203e-07 AU
i 8.684280794671222 1.039e-05 deg
node 190.9501660148756 3.0938e-05 deg
peri 130.2463720223215 4.5968e-05 deg
M 340.3169936033942 3.7846e-05 deg
tp 2456893.992391281826
(2014-Aug-24.49239128)
0.00018074 JED
period 1709.965448533376
4.68
2.5848e-05
7.077e-08
d
yr
n .2105305696724861 3.1824e-09 deg/d
Q 3.241659967743014 3.2667e-08 AU
  Orbit Determination Parameters
   # obs. used (total)      953  
   data-arc span      13048 days (35.72 yr)  
   first obs. used      1977-10-16  
   last obs. used      2013-07-07  
   planetary ephem.      DE431  
   SB-pert. ephem.      SB431-BIG16  
   condition code      0  
   fit RMS      .52296  
   data source      ORB  
   producer      Otto Matic  
   solution date      2013-Aug-05 16:40:35  

Additional Information
 Earth MOID = 1.35341 AU 
 T_jup = 3.291 
[ show covariance matrix ]

Ephemeris | Orbit Diagram | Orbital Elements | Physical Parameters | Discovery Circumstances | Close-Approach Data ]

Physical Parameter Table
Parameter Symbol Value Units Sigma Reference Notes
absolute magnitude H 13.3 mag n/a PDS3 (MPC 34479)  

10665 Ortigão           Discovered 1977 Oct. 16 by C. J. van Houten and I. van Houten-Groeneveld on Palomar Schmidt plates taken by T. Gehrels.
Catarina Ortigão (b. 1974) is a person of rare inner beauty, to whom Pedro Lacerda, a colleague of the discoverers, would like to pay tribute. She is a Portuguese-born scientist working in the field of medical physics.
NOTE: some special characters may not display properly (any characters within {} are an attempt to place the proper accent above a character)
Reference: 20020921/MPCPages.arcLast Updated: 2003-10-02

[ show close-approach data ]
Alternate Designations
 3019 T-3 = 1986 RT 
Ephemeris | Orbit Diagram | Orbital Elements | Physical Parameters | Discovery Circumstances | Close-Approach Data ]
ABOUT SSD CREDITS/AWARDS PRIVACY/COPYRIGHT GLOSSARY LINKS
FirstGov 2014-Apr-20 08:19 UT
(server date/time)  
NASA Home Page
Site Manager:   Donald K. Yeomans
Webmaster  Alan B. Chamberlin